When you browse on this site, cookies collect data to enhance your experience and personalize the content and advertising you see.
Visit our Privacy Policy to learn more. By continuing to use the site, you agree to this use of cookies and data.
  • In Romania
  • List of Countries
  • For 7 days
  • Water Temperature
  • Weather Map
  • Weather Widgets
  • user-avatar
    Login

    Hourly Weather Pecs

    Today, 21 October, Monday

    Time Temperature Precipitation Wind Pressure Humidity
    00:00 +16°C° 0 mm 2 mps 745 mmHg 67%
    01:00 +16°C° 0 mm 2 mps 745 mmHg 71%
    02:00 +16°C° 0 mm 2 mps 745 mmHg 73%
    03:00 +16°C° 0 mm 2 mps 745 mmHg 76%
    04:00 +16°C° 0 mm 2 mps 745 mmHg 79%
    05:00 +16°C° 0 mm 2 mps 745 mmHg 77%
    06:00 +16°C° 0 mm 2 mps 745 mmHg 76%
    07:00 +16°C° 0 mm 2 mps 746 mmHg 74%
    08:00 +18°C° 0 mm 3 mps 746 mmHg 65%
    09:00 +21°C° 0 mm 3 mps 746 mmHg 56%
    10:00 +24°C° 0 mm 3 mps 746 mmHg 46%
    11:00 +25°C° 0 mm 3 mps 746 mmHg 43%
    12:00 +26°C° 0 mm 4 mps 746 mmHg 39%
    13:00 +28°C° 0 mm 4 mps 746 mmHg 35%
    14:00 +27°C° 0 mm 4 mps 746 mmHg 38%
    15:00 +26°C° 0 mm 3 mps 746 mmHg 41%
    16:00 +25°C° 0 mm 3 mps 746 mmHg 43%
    17:00 +24°C° 0 mm 2 mps 746 mmHg 47%
    18:00 +21°C° 0 mm 2 mps 746 mmHg 51%
    19:00 +20°C° 0 mm 2 mps 746 mmHg 55%
    20:00 +20°C° 0 mm 1 mps 746 mmHg 55%
    21:00 +20°C° 0 mm 1 mps 746 mmHg 56%
    22:00 +20°C° 0 mm 1 mps 746 mmHg 57%
    23:00 +19°C° 0 mm 1 mps 747 mmHg 58%

    Tomorrow, 22 October, Tuesday

    Time Temperature Precipitation Wind Pressure Humidity
    00:00 +19°C° 0 mm 1 mps 747 mmHg 60%
    01:00 +18°C° 0 mm 1 mps 747 mmHg 62%
    02:00 +18°C° 0 mm 1 mps 747 mmHg 63%
    03:00 +18°C° 0 mm 1 mps 747 mmHg 65%
    04:00 +16°C° 0 mm 1 mps 747 mmHg 66%
    05:00 +16°C° 0 mm 1 mps 747 mmHg 67%
    06:00 +15°C° 0 mm 0 mps 747 mmHg 67%
    07:00 +15°C° 0 mm 0 mps 748 mmHg 67%
    08:00 +17°C° 0 mm 0 mps 748 mmHg 61%
    09:00 +20°C° 0 mm 0 mps 748 mmHg 54%
    10:00 +22°C° 0 mm 0 mps 748 mmHg 47%
    11:00 +23°C° 0 mm 0 mps 748 mmHg 44%
    12:00 +26°C° 0 mm 1 mps 748 mmHg 40%
    13:00 +27°C° 0 mm 1 mps 748 mmHg 37%
    14:00 +26°C° 0 mm 1 mps 748 mmHg 39%
    15:00 +26°C° 0 mm 1 mps 747 mmHg 41%
    16:00 +25°C° 0 mm 1 mps 747 mmHg 43%
    17:00 +23°C° 0 mm 1 mps 747 mmHg 46%
    18:00 +22°C° 0 mm 1 mps 747 mmHg 49%
    19:00 +21°C° 0 mm 1 mps 747 mmHg 52%
    20:00 +20°C° 0 mm 1 mps 747 mmHg 54%
    21:00 +19°C° 0 mm 1 mps 747 mmHg 55%
    22:00 +19°C° 0 mm 1 mps 747 mmHg 57%
    23:00 +18°C° 0 mm 1 mps 747 mmHg 58%

    Day after tomorrow, 23 October, Wednesday

    Time Temperature Precipitation Wind Pressure Humidity
    00:00 +18°C° 0 mm 1 mps 747 mmHg 59%
    01:00 +18°C° 0 mm 1 mps 747 mmHg 59%
    02:00 +16°C° 0 mm 1 mps 747 mmHg 60%
    03:00 +16°C° 0 mm 1 mps 747 mmHg 61%
    04:00 +16°C° 0 mm 1 mps 746 mmHg 62%
    05:00 +16°C° 0 mm 1 mps 746 mmHg 63%
    06:00 +15°C° 0 mm 1 mps 746 mmHg 65%
    07:00 +15°C° 0 mm 1 mps 746 mmHg 66%
    08:00 +18°C° 0 mm 1 mps 746 mmHg 59%
    09:00 +19°C° 0 mm 2 mps 746 mmHg 52%
    10:00 +21°C° 0 mm 2 mps 746 mmHg 45%
    11:00 +23°C° 0 mm 2 mps 746 mmHg 42%
    12:00 +25°C° 0 mm 2 mps 746 mmHg 39%
    13:00 +26°C° 0 mm 3 mps 745 mmHg 36%
    14:00 +25°C° 0 mm 2 mps 745 mmHg 38%
    15:00 +24°C° 0 mm 2 mps 745 mmHg 40%
    16:00 +24°C° 0 mm 1 mps 744 mmHg 42%
    17:00 +22°C° 0 mm 1 mps 744 mmHg 46%
    18:00 +21°C° 0 mm 1 mps 744 mmHg 49%
    19:00 +19°C° 0 mm 1 mps 744 mmHg 53%
    20:00 +19°C° 0 mm 1 mps 744 mmHg 55%
    21:00 +18°C° 0 mm 1 mps 744 mmHg 56%
    22:00 +18°C° 0 mm 1 mps 744 mmHg 58%
    23:00 +16°C° 0 mm 1 mps 744 mmHg 60%

    24 October, Thursday

    Time Temperature Precipitation Wind Pressure Humidity
    00:00 +16°C° 0 mm 1 mps 744 mmHg 62%
    01:00 +15°C° 0 mm 1 mps 744 mmHg 64%
    02:00 +15°C° 0 mm 1 mps 744 mmHg 64%
    03:00 +15°C° 0 mm 1 mps 744 mmHg 65%
    04:00 +14°C° 0 mm 1 mps 743 mmHg 66%
    05:00 +14°C° 0 mm 1 mps 743 mmHg 66%
    06:00 +14°C° 0 mm 1 mps 743 mmHg 65%
    07:00 +14°C° 0 mm 1 mps 743 mmHg 65%
    08:00 +18°C° 0 mm 1 mps 743 mmHg 58%
    09:00 +20°C° 0 mm 1 mps 743 mmHg 51%
    10:00 +21°C° 0 mm 2 mps 743 mmHg 44%
    11:00 +24°C° 0 mm 2 mps 743 mmHg 41%
    12:00 +25°C° 0 mm 2 mps 743 mmHg 37%
    13:00 +26°C° 0 mm 2 mps 743 mmHg 34%
    14:00 +26°C° 0 mm 2 mps 742 mmHg 37%
    15:00 +25°C° 0 mm 2 mps 742 mmHg 40%
    16:00 +24°C° 0 mm 2 mps 742 mmHg 42%
    17:00 +21°C° 0 mm 2 mps 742 mmHg 46%
    18:00 +21°C° 0 mm 1 mps 742 mmHg 49%
    19:00 +19°C° 0 mm 1 mps 742 mmHg 53%
    20:00 +19°C° 0 mm 1 mps 743 mmHg 54%
    21:00 +18°C° 0 mm 1 mps 743 mmHg 54%
    22:00 +18°C° 0 mm 1 mps 743 mmHg 55%
    23:00 +16°C° 0 mm 1 mps 743 mmHg 55%

    25 October, Friday

    Time Temperature Precipitation Wind Pressure Humidity
    00:00 +16°C° 0 mm 1 mps 743 mmHg 56%
    01:00 +14°C° 0 mm 0 mps 743 mmHg 56%
    02:00 +14°C° 0 mm 0 mps 743 mmHg 57%
    03:00 +14°C° 0 mm 0 mps 743 mmHg 58%
    04:00 +13°C° 0 mm 0 mps 743 mmHg 59%
    05:00 +14°C° 0 mm 1 mps 744 mmHg 60%
    06:00 +14°C° 0 mm 1 mps 744 mmHg 61%
    07:00 +14°C° 0 mm 1 mps 744 mmHg 61%
    08:00 +16°C° 0 mm 1 mps 745 mmHg 55%
    09:00 +19°C° 0 mm 1 mps 745 mmHg 48%
    10:00 +20°C° 0 mm 2 mps 746 mmHg 42%
    11:00 +21°C° 0 mm 2 mps 746 mmHg 39%
    12:00 +24°C° 0 mm 2 mps 746 mmHg 36%
    13:00 +25°C° 0 mm 2 mps 746 mmHg 33%
    14:00 +24°C° 0 mm 2 mps 746 mmHg 36%
    15:00 +23°C° 0 mm 2 mps 746 mmHg 38%
    16:00 +22°C° 0 mm 1 mps 746 mmHg 41%
    17:00 +21°C° 0 mm 1 mps 746 mmHg 44%
    18:00 +19°C° 0 mm 1 mps 746 mmHg 47%
    19:00 +18°C° 0 mm 1 mps 746 mmHg 50%
    20:00 +16°C° 0 mm 1 mps 747 mmHg 52%
    21:00 +16°C° 0 mm 1 mps 747 mmHg 55%
    22:00 +15°C° 0 mm 1 mps 747 mmHg 57%
    23:00 +15°C° 0 mm 1 mps 747 mmHg 59%

    26 October, Saturday

    Time Temperature Precipitation Wind Pressure Humidity
    00:00 +14°C° 0 mm 1 mps 747 mmHg 62%
    01:00 +14°C° 0 mm 1 mps 747 mmHg 64%
    02:00 +14°C° 0 mm 1 mps 747 mmHg 65%
    03:00 +12°C° 0 mm 0 mps 747 mmHg 67%
    04:00 +12°C° 0 mm 0 mps 747 mmHg 68%
    05:00 +12°C° 0 mm 0 mps 747 mmHg 68%
    06:00 +12°C° 0 mm 0 mps 747 mmHg 69%
    07:00 +12°C° 0 mm 0 mps 747 mmHg 69%
    08:00 +14°C° 0 mm 0 mps 748 mmHg 61%
    09:00 +16°C° 0 mm 0 mps 748 mmHg 53%
    10:00 +19°C° 0 mm 0 mps 748 mmHg 46%
    11:00 +22°C° 0 mm 1 mps 748 mmHg 43%
    12:00 +23°C° 0 mm 1 mps 747 mmHg 39%
    13:00 +24°C° 0 mm 1 mps 747 mmHg 36%
    14:00 +23°C° 0 mm 1 mps 746 mmHg 39%
    15:00 +22°C° 0 mm 1 mps 746 mmHg 41%
    16:00 +21°C° 0 mm 1 mps 746 mmHg 44%
    17:00 +18°C° 0 mm 0 mps 746 mmHg 47%
    18:00 +17°C° 0 mm 0 mps 746 mmHg 50%
    19:00 +15°C° 0 mm 0 mps 746 mmHg 53%
    20:00 +15°C° 0 mm 0 mps 746 mmHg 55%
    21:00 +14°C° 0 mm 0 mps 746 mmHg 57%
    22:00 +14°C° 0 mm 0 mps 746 mmHg 59%
    23:00 +14°C° 0 mm 0 mps 746 mmHg 60%

    27 October, Sunday

    Time Temperature Precipitation Wind Pressure Humidity
    00:00 +13°C° 0 mm 0 mps 746 mmHg 62%
    01:00 +13°C° 0 mm 0 mps 746 mmHg 64%
    02:00 +12°C° 0 mm 0 mps 746 mmHg 66%
    03:00 +12°C° 0 mm 0 mps 746 mmHg 69%
    04:00 +13°C° 0 mm 1 mps 746 mmHg 71%
    05:00 +13°C° 0 mm 1 mps 746 mmHg 72%
    06:00 +13°C° 0 mm 1 mps 746 mmHg 74%
    07:00 +13°C° 0 mm 1 mps 747 mmHg 75%
    08:00 +15°C° 0 mm 1 mps 747 mmHg 67%
    09:00 +18°C° 0 mm 1 mps 747 mmHg 60%
    10:00 +20°C° 0 mm 1 mps 747 mmHg 53%
    11:00 +20°C° 0 mm 2 mps 747 mmHg 50%
    12:00 +21°C° 0 mm 2 mps 747 mmHg 46%
    13:00 +23°C° 0 mm 2 mps 747 mmHg 43%
    14:00 +23°C° 0 mm 2 mps 747 mmHg 46%
    15:00 +21°C° 0 mm 2 mps 746 mmHg 50%
    16:00 +20°C° 0 mm 2 mps 746 mmHg 53%
    17:00 +19°C° 0 mm 2 mps 746 mmHg 56%
    18:00 +17°C° 0 mm 2 mps 747 mmHg 59%
    19:00 +16°C° 0 mm 2 mps 747 mmHg 61%
    20:00 +15°C° 0 mm 2 mps 747 mmHg 64%
    21:00 +15°C° 0 mm 2 mps 747 mmHg 66%
    22:00 +14°C° 0 mm 2 mps 747 mmHg 68%
    23:00 +14°C° 0 mm 2 mps 747 mmHg 71%
    Show more